TimeEST,TemperatureF,Dew PointF,Humidity,Sea Level PressureIn,VisibilityMPH,Wind Direction,Wind SpeedMPH,Gust SpeedMPH,PrecipitationIn,Events,Conditions,WindDirDegrees,DateUTC
12:53 AM,70.0,69.1,97,30.00,6.0,SSE,6.9,-,N/A,,Clear,160,2013-02-13 05:53:00
1:51 AM,69.8,68.0,94,29.98,5.0,SSE,6.9,-,N/A,,Mostly Cloudy,150,2013-02-13 06:51:00
1:53 AM,70.0,68.0,93,29.98,5.0,SSE,6.9,-,N/A,,Mostly Cloudy,150,2013-02-13 06:53:00
2:09 AM,69.8,68.0,94,29.97,5.0,SSE,6.9,-,N/A,,Overcast,150,2013-02-13 07:09:00
2:44 AM,69.8,69.8,100,29.97,5.0,SSE,5.8,-,N/A,,Overcast,160,2013-02-13 07:44:00
2:53 AM,70.0,69.1,97,29.97,5.0,SSE,4.6,-,N/A,,Overcast,150,2013-02-13 07:53:00
3:31 AM,69.8,69.8,100,29.97,4.0,SE,4.6,-,N/A,,Overcast,140,2013-02-13 08:31:00
3:53 AM,70.0,68.0,93,29.96,4.0,SE,5.8,-,N/A,,Overcast,140,2013-02-13 08:53:00
4:53 AM,70.0,69.1,97,29.96,4.0,SE,5.8,-,N/A,,Overcast,140,2013-02-13 09:53:00
5:53 AM,72.0,71.1,97,29.96,5.0,SSE,8.1,-,N/A,,Overcast,160,2013-02-13 10:53:00
6:53 AM,73.0,71.1,93,29.97,6.0,SSE,10.4,-,N/A,,Overcast,160,2013-02-13 11:53:00
7:53 AM,73.0,71.1,93,29.98,5.0,SSE,10.4,-,N/A,,Overcast,160,2013-02-13 12:53:00
8:53 AM,75.0,72.0,90,29.99,6.0,South,8.1,-,N/A,,Overcast,170,2013-02-13 13:53:00
9:53 AM,78.1,72.0,81,30.01,8.0,South,11.5,-,N/A,,Mostly Cloudy,190,2013-02-13 14:53:00
10:21 AM,80.6,71.6,74,30.01,8.0,South,13.8,-,N/A,,Scattered Clouds,190,2013-02-13 15:21:00
10:53 AM,80.1,71.1,74,30.01,8.0,SSW,16.1,-,N/A,,Scattered Clouds,210,2013-02-13 15:53:00
11:53 AM,81.0,72.0,74,29.99,8.0,SSW,18.4,25.3,N/A,,Partly Cloudy,200,2013-02-13 16:53:00
12:53 PM,81.0,71.1,72,29.96,8.0,South,17.3,23.0,N/A,,Partly Cloudy,190,2013-02-13 17:53:00
1:53 PM,81.0,70.0,69,29.94,9.0,SSW,12.7,-,N/A,,Clear,210,2013-02-13 18:53:00
2:53 PM,80.1,69.1,69,29.93,9.0,SSW,17.3,21.9,N/A,,Partly Cloudy,200,2013-02-13 19:53:00
3:53 PM,79.0,70.0,74,29.93,9.0,SSW,17.3,-,N/A,,Scattered Clouds,210,2013-02-13 20:53:00
4:53 PM,78.1,70.0,76,29.93,8.0,SSW,15.0,20.7,N/A,,Clear,210,2013-02-13 21:53:00
5:53 PM,75.9,70.0,82,29.93,7.0,SSW,12.7,19.6,N/A,,Partly Cloudy,200,2013-02-13 22:53:00
6:53 PM,73.9,70.0,87,29.93,7.0,SSW,8.1,-,N/A,,Clear,200,2013-02-13 23:53:00
7:53 PM,73.9,70.0,87,29.94,6.0,SSW,8.1,-,N/A,,Clear,200,2013-02-14 00:53:00
8:53 PM,73.9,70.0,87,29.95,7.0,SSW,9.2,-,N/A,,Clear,210,2013-02-14 01:53:00
9:53 PM,73.9,70.0,87,29.96,7.0,SSW,9.2,-,N/A,,Mostly Cloudy,210,2013-02-14 02:53:00
10:53 PM,73.0,70.0,90,29.96,5.0,South,5.8,-,N/A,,Clear,190,2013-02-14 03:53:00
11:53 PM,73.0,70.0,90,29.96,6.0,South,9.2,-,N/A,,Mostly Cloudy,190,2013-02-14 04:53:00